Location: Peterborough
(44.3091°N, 78.3197°W)
Time: 16:11:21
(UTC-04:00)

Transit 4A - Pass Details

Date: 26 March 2023
Orbit: 864 x 980 km, 66.8° (Epoch: 04 June)

Event Time Altitude Azimuth Distance (km) Brightness Sun altitude
Rises 07:09:52 0° 203° (SSW) 3,429 10.6 -0.1°
Reaches altitude 10° 07:12:19 10° 201° (SSW) 2,498 9.9 0.3°
Maximum altitude 07:18:03 72° 118° (ESE) 919 8.2 1.4°
Drops below altitude 10° 07:23:55 10° 35° (NE) 2,557 10.8 2.4°
Sets 07:26:27 0° 34° (NE) 3,516 11.4 2.9°
